SVBC/BLA METAR and TAF weather

Enter ICAO airport designator
Station Type Date Time Source
SVBC METAR 2018/10/22 20:00 UTC NOAA

SVBC 222000Z /////KT 9000 DZBKN020 25/25 Q1008


Station Type Date Time Source
SVBC Decoded METAR 2018/10/22 20:00 UTC NOAA

Barcelona, Venezuela (SVBC) 10-07N 064-41W 7M
Oct 22, 2018 - 04:00 PM EDT / 2018.10.22 2000 UTC
Visibility: 5 mile(s):0
Temperature: 77 F (25 C)
Dew Point: 77 F (25 C)
Relative Humidity: 100%
Pressure (altimeter): 29.77 in. Hg (1008 hPa)
ob: SVBC 222000Z /////KT 9000 DZBKN020 25/25 Q1008
cycle: 20

Station Type Date Time Source
SVBC TAF 2019/02/18 18:03 UTC NOAA

TAF SVBC 181600Z 1818/1918 36005KT 9999 BKN016 TX31/18Z TN25/08Z
BECMG 1818/1900 36002KT SCT016


Example: see airport list